Date String (YYYY-MM-DD hh:mm:ss) UTC,Instrument flags,Ambient pressure (hPa),Sample flow (lpm),Bypass flow (lpm),Sample temperature (°C),Ambient temperature (°C),ASC tube jacket temperature (°C),LED temperature (°C),Box temperature (°C),Sample RH (%),Span deviation,Mass concentration (μg/m³),Mass concentration (μg/m³),Mass concentration (μg/m³)
DateTimeUTC,F1_M11,P_M11,Q1_M11,Q2_M11,T1_M11,T2_M11,T3_M11,T4_M11,T5_M11,U1_M11,ZSPAN_M11,X0_M11,X2_M11,X1_M11
2023-05-12 09:00:00,,0826.8,5.00,0.00,25.1,23.0,00.0,33.9,26.7,32.5,0000.0,0001.04,0000.55,0000.33
2023-05-12 09:01:00,,0826.9,4.99,0.00,25.1,23.0,00.0,33.8,26.7,32.5,0000.0,0001.07,0000.55,0000.33
2023-05-12 09:02:00,,0826.8,4.99,0.00,25.1,23.0,00.0,33.8,26.7,32.6,0000.0,0001.07,0000.55,0000.32
2023-05-12 09:03:00,,0826.8,5.00,0.00,25.1,22.9,00.0,33.8,26.6,32.6,0000.0,0001.16,0000.54,0000.31
2023-05-12 09:04:00,,0826.8,5.01,0.00,25.0,22.9,00.0,33.7,26.6,32.7,0000.0,0001.24,0000.55,0000.31
2023-05-12 09:05:00,,0826.8,5.00,0.00,25.0,23.0,00.0,33.7,26.6,32.7,0000.0,0001.19,0000.53,0000.30
2023-05-12 09:06:00,,0826.8,5.00,0.00,25.0,22.9,00.0,33.7,26.6,32.7,0000.0,0001.14,0000.50,0000.29
2023-05-12 09:07:00,,0826.8,4.99,0.00,25.0,22.9,00.0,33.7,26.6,32.8,0000.0,0001.15,0000.50,0000.28
2023-05-12 09:08:00,,0826.8,4.99,0.00,25.0,22.9,00.0,33.6,26.6,32.8,0000.0,0001.17,0000.50,0000.28
2023-05-12 09:09:00,,0826.8,4.99,0.00,24.9,22.9,00.0,33.6,26.6,32.8,0000.0,0001.20,0000.52,0000.28
2023-05-12 09:10:00,,0826.8,5.00,0.00,24.9,22.9,00.0,33.6,26.6,32.8,0000.0,0001.25,0000.54,0000.28
2023-05-12 09:11:00,,0826.8,5.01,0.00,24.9,22.9,00.0,33.6,26.5,32.8,0000.0,0001.27,0000.55,0000.29
2023-05-12 09:12:00,,0826.8,5.01,0.00,24.9,22.9,00.0,33.6,26.5,32.8,0000.0,0001.28,0000.57,0000.28
2023-05-12 09:13:00,,0826.8,5.00,0.00,24.9,22.9,00.0,33.5,26.5,32.8,0000.0,0001.43,0000.62,0000.29
2023-05-12 09:14:00,,0826.8,4.99,0.00,24.9,22.9,00.0,33.5,26.5,32.9,0000.0,0001.84,0000.63,0000.29
2023-05-12 09:15:00,,0826.8,5.00,0.00,24.8,22.8,00.0,33.5,26.5,32.8,0000.0,0002.62,0000.60,0000.30
2023-05-12 09:16:00,,0826.8,4.99,0.00,24.8,22.8,00.0,33.5,26.5,32.8,0000.0,0002.67,0000.62,0000.30
2023-05-12 09:17:00,,0826.8,4.99,0.00,24.8,22.8,00.0,33.5,26.5,32.9,0000.0,0002.69,0000.63,0000.31
2023-05-12 09:18:00,,0826.8,5.00,0.00,24.8,22.8,00.0,33.4,26.4,32.8,0000.0,0002.69,0000.64,0000.31
2023-05-12 09:19:00,,0826.8,5.00,0.00,24.8,22.8,00.0,33.4,26.4,32.9,0000.0,0002.72,0000.67,0000.33
2023-05-12 09:20:00,,0826.8,5.00,0.00,24.8,22.8,00.0,33.4,26.4,32.9,0000.0,0002.74,0000.67,0000.33
2023-05-12 09:21:00,,0826.8,5.01,0.00,24.7,22.8,00.0,33.4,26.3,32.9,0000.0,0002.77,0000.68,0000.34
2023-05-12 09:22:00,,0826.8,5.00,0.00,24.7,22.8,00.0,33.4,26.3,32.9,0000.0,0002.98,0000.75,0000.35
2023-05-12 09:23:00,,0826.8,5.00,0.00,24.7,22.8,00.0,33.4,26.4,32.9,0000.0,0003.25,0000.81,0000.36
2023-05-12 09:24:00,,0826.8,4.99,0.00,24.7,22.8,00.0,33.3,26.4,32.9,0000.0,0003.35,0000.82,0000.36
2023-05-12 09:25:00,,0826.9,5.00,0.00,24.7,22.9,00.0,33.3,26.4,32.9,0000.0,0003.29,0000.93,0000.37
2023-05-12 09:26:00,,0826.9,5.00,0.00,24.7,22.9,00.0,33.3,26.4,32.9,0000.0,0002.45,0001.03,0000.40
2023-05-12 09:27:00,,0826.8,5.00,0.00,24.7,22.9,00.0,33.3,26.4,32.9,0000.0,0002.61,0001.11,0000.42
2023-05-12 09:28:00,,0826.8,5.00,0.00,24.7,22.9,00.0,33.3,26.3,32.9,0000.0,0002.74,0001.17,0000.45
2023-05-12 09:29:00,,0826.8,5.00,0.00,24.7,23.0,00.0,33.3,26.4,32.9,0000.0,0002.95,0001.27,0000.49
2023-05-12 09:30:00,,0826.9,5.01,0.00,24.7,23.0,00.0,33.3,26.4,33.0,0000.0,0003.30,0001.40,0000.54
2023-05-12 09:31:00,,0826.9,5.00,0.00,24.7,23.0,00.0,33.3,26.3,33.0,0000.0,0003.64,0001.55,0000.59
2023-05-12 09:32:00,,0826.9,5.00,0.00,24.7,23.0,00.0,33.3,26.4,33.1,0000.0,0003.82,0001.63,0000.63
2023-05-12 09:33:00,,0826.8,5.01,0.00,24.7,23.0,00.0,33.3,26.3,33.0,0000.0,0003.90,0001.68,0000.67
2023-05-12 09:34:00,,0826.8,5.00,0.00,24.7,23.0,00.0,33.2,26.3,33.0,0000.0,0004.07,0001.74,0000.71
2023-05-12 09:35:00,,0826.9,5.00,0.00,24.7,23.0,00.0,33.2,26.4,33.1,0000.0,0004.12,0001.81,0000.75
2023-05-12 09:36:00,,0826.9,5.00,0.00,24.7,23.0,00.0,33.2,26.4,33.1,0000.0,0004.28,0001.88,0000.78
2023-05-12 09:37:00,,0826.9,5.00,0.00,24.7,23.0,00.0,33.2,26.4,33.1,0000.0,0004.27,0001.87,0000.78
2023-05-12 09:38:00,,0826.9,5.00,0.00,24.7,23.0,00.0,33.2,26.3,33.1,0000.0,0004.38,0001.91,0000.80
2023-05-12 09:39:00,,0826.9,4.99,0.00,24.7,23.0,00.0,33.2,26.3,33.1,0000.0,0004.64,0001.98,0000.81
2023-05-12 09:40:00,,0826.9,5.00,0.00,24.7,23.0,00.0,33.2,26.4,33.1,0000.0,0004.80,0001.97,0000.80
2023-05-12 09:41:00,,0826.9,5.00,0.00,24.7,23.0,00.0,33.2,26.4,33.1,0000.0,0005.30,0001.95,0000.79
2023-05-12 09:42:00,,0826.9,5.00,0.00,24.7,23.0,00.0,33.2,26.4,33.2,0000.0,0005.13,0001.90,0000.78
2023-05-12 09:43:00,,0826.9,5.00,0.00,24.7,23.0,00.0,33.2,26.4,33.1,0000.0,0005.13,0001.90,0000.78
2023-05-12 09:44:00,,0826.9,5.00,0.00,24.7,23.0,00.0,33.2,26.4,33.1,0000.0,0005.14,0001.88,0000.77
2023-05-12 09:45:00,,0826.9,5.00,0.00,24.7,23.0,00.0,33.2,26.4,33.1,0000.0,0005.05,0001.89,0000.76
2023-05-12 09:46:00,,0826.9,5.00,0.00,24.7,23.0,00.0,33.2,26.3,33.1,0000.0,0005.06,0001.86,0000.75
2023-05-12 09:47:00,,0826.9,5.00,0.00,24.7,23.0,00.0,33.2,26.4,33.1,0000.0,0004.81,0001.75,0000.73
2023-05-12 09:48:00,,0826.9,5.00,0.00,24.7,23.1,00.0,33.2,26.4,33.1,0000.0,0004.89,0001.77,0000.74
2023-05-12 09:49:00,,0826.9,5.00,0.00,24.7,23.1,00.0,33.2,26.4,33.1,0000.0,0004.93,0001.78,0000.74
2023-05-12 09:50:00,,0826.9,5.00,0.00,24.7,23.1,00.0,33.2,26.4,33.1,0000.0,0004.75,0001.75,0000.73
2023-05-12 09:51:00,,0826.9,5.00,0.00,24.7,23.1,00.0,33.2,26.4,33.1,0000.0,0004.78,0001.80,0000.75
2023-05-12 09:52:00,,0826.9,5.00,0.00,24.7,23.1,00.0,33.2,26.4,33.1,0000.0,0005.19,0001.82,0000.75
2023-05-12 09:53:00,,0826.9,5.00,0.00,24.8,23.1,00.0,33.2,26.4,33.2,0000.0,0005.75,0001.86,0000.76
2023-05-12 09:54:00,,0826.9,4.99,0.00,24.8,23.1,00.0,33.2,26.4,33.1,0000.0,0005.96,0001.98,0000.77
2023-05-12 09:55:00,,0826.8,4.99,0.00,24.8,23.1,00.0,33.2,26.4,33.1,0000.0,0006.22,0002.11,0000.79
2023-05-12 09:56:00,,0826.9,5.02,0.00,24.7,23.0,00.0,33.2,26.4,33.1,0000.0,0006.15,0002.13,0000.80
2023-05-12 09:57:00,,0826.9,5.00,0.00,24.7,23.0,00.0,33.2,26.4,33.1,0000.0,0006.17,0002.10,0000.79
2023-05-12 09:58:00,,0826.9,4.99,0.00,24.7,23.0,00.0,33.2,26.4,33.1,0000.0,0006.03,0002.06,0000.77
2023-05-12 09:59:00,,0826.9,5.00,0.00,24.7,23.0,00.0,33.2,26.4,33.1,0000.0,0005.86,0002.00,0000.75
